Location: Shepherdstown, WV
(39.4326°N, 77.8042°W)
Time: 19:40:46
(UTC-04:00)

Vanguard 1 Rocket - Pass Details

Date: 11 August 2021
Orbit: 650 x 4226 km, 34.3° (Epoch: 19 September)

Event Time Altitude Azimuth Distance (km) Brightness Sun altitude
Rises 09:44:45 0° 252° (WSW) 8,426 11.9 38.0°
Reaches altitude 10° 09:50:38 10° 251° (WSW) 7,429 11.7 39.1°
Maximum altitude 10:16:05 73° 173° (S) 3,468 11.3 43.8°
Drops below altitude 10° 10:31:12 10° 92° (E) 4,779 12.0 46.5°
Sets 10:34:04 0° 90° (E) 5,424 12.0 47.0°
